Volver al catálogo

BREEZE-M DEB

LostHEO
NORAD 38599·DEBRIS·🇷🇺 Russia

Lanzado Mar 14, 2008 desde Baikonur Cosmodrome

Loading…

Próximos Pases (próximas 24 horas)

TLE

ObsoletoSource: Space-Track

Época: Nov 18, 2020, 12:44 UTC

1 38599U 08011AW  20323.53107258  .00023799  00000-0  19149-1 0  9990
2 38599  49.5881  97.9752 6790352 253.3050  26.9650  2.86944986100858

Sigue BREEZE-M DEB en tiempo real con AllMySat

Download on the App Store